Time,TemperatureF,DewpointF,PressureIn,WindDirection,WindDirectionDegrees,WindSpeedMPH,WindSpeedGustMPH,Humidity,HourlyPrecipIn,Conditions,Clouds,dailyrainin,SolarRadiationWatts/m^2,SoftwareType,DateUTC
2013-05-14 00:12:00,58.0,33.0,-100.00,South,170,8.0,15.0,39,0.00,,,0.00,0.000000,,2013-05-14 05:12:00,
2013-05-14 00:22:00,58.0,33.0,-100.00,South,170,8.0,15.0,39,0.00,,,0.00,0.000000,,2013-05-14 05:22:00,
2013-05-14 00:32:00,58.0,33.0,-100.00,South,170,8.0,15.0,39,0.00,,,0.00,0.000000,,2013-05-14 05:32:00,
2013-05-14 00:42:00,58.0,33.0,-100.00,South,170,8.0,15.0,39,0.00,,,0.00,0.000000,,2013-05-14 05:42:00,
2013-05-14 01:12:00,57.0,35.0,-100.00,SSE,165,6.0,13.0,43,0.00,,,0.00,0.000000,,2013-05-14 06:12:00,
2013-05-14 01:22:00,57.0,35.0,-100.00,SSE,165,6.0,13.0,43,0.00,,,0.00,0.000000,,2013-05-14 06:22:00,
2013-05-14 01:32:00,57.0,35.0,-100.00,SSE,165,6.0,13.0,43,0.00,,,0.00,0.000000,,2013-05-14 06:32:00,
2013-05-14 01:42:00,57.0,35.0,-100.00,SSE,165,6.0,13.0,43,0.00,,,0.00,0.000000,,2013-05-14 06:42:00,
2013-05-14 02:11:00,57.0,37.0,-100.00,South,173,6.0,11.0,47,0.00,,,0.00,0.000000,,2013-05-14 07:11:00,
2013-05-14 02:21:00,57.0,37.0,-100.00,South,173,6.0,11.0,47,0.00,,,0.00,0.000000,,2013-05-14 07:21:00,
2013-05-14 02:32:00,57.0,37.0,-100.00,South,173,6.0,11.0,47,0.00,,,0.00,0.000000,,2013-05-14 07:32:00,
2013-05-14 02:42:00,57.0,37.0,-100.00,South,173,6.0,11.0,47,0.00,,,0.00,0.000000,,2013-05-14 07:42:00,
2013-05-14 03:11:00,59.0,39.0,-100.00,South,188,9.0,21.0,48,0.00,,,0.00,0.000000,,2013-05-14 08:11:00,
2013-05-14 03:21:00,59.0,39.0,-100.00,South,188,9.0,21.0,48,0.00,,,0.00,0.000000,,2013-05-14 08:21:00,
2013-05-14 03:32:00,59.0,39.0,-100.00,South,188,9.0,21.0,48,0.00,,,0.00,0.000000,,2013-05-14 08:32:00,
2013-05-14 03:41:00,59.0,39.0,-100.00,South,188,9.0,21.0,48,0.00,,,0.00,0.000000,,2013-05-14 08:41:00,
2013-05-14 04:11:00,58.0,40.0,-100.00,SSW,194,9.0,15.0,52,0.00,,,0.00,0.000000,,2013-05-14 09:11:00,
2013-05-14 04:22:00,58.0,40.0,-100.00,SSW,194,9.0,15.0,52,0.00,,,0.00,0.000000,,2013-05-14 09:22:00,
2013-05-14 04:32:00,58.0,40.0,-100.00,SSW,194,9.0,15.0,52,0.00,,,0.00,0.000000,,2013-05-14 09:32:00,
2013-05-14 04:44:00,58.0,40.0,-100.00,SSW,194,9.0,15.0,52,0.00,,,0.00,0.000000,,2013-05-14 09:44:00,
2013-05-14 05:14:00,56.0,41.0,-100.00,South,191,5.0,21.0,58,0.00,,,0.00,0.000000,,2013-05-14 10:14:00,
2013-05-14 05:25:00,56.0,41.0,-100.00,South,191,5.0,21.0,58,0.00,,,0.00,0.000000,,2013-05-14 10:25:00,
2013-05-14 05:33:00,56.0,41.0,-100.00,South,191,5.0,21.0,58,0.00,,,0.00,0.000000,,2013-05-14 10:33:00,
2013-05-14 05:42:00,56.0,41.0,-100.00,South,191,5.0,21.0,58,0.00,,,0.00,0.000000,,2013-05-14 10:42:00,
2013-05-14 06:11:00,53.0,42.0,-100.00,SSW,200,5.0,7.0,67,0.00,,,0.00,1.000000,,2013-05-14 11:11:00,
2013-05-14 06:22:00,53.0,42.0,-100.00,SSW,200,5.0,7.0,67,0.00,,,0.00,1.000000,,2013-05-14 11:22:00,
2013-05-14 06:32:00,53.0,42.0,-100.00,SSW,200,5.0,7.0,67,0.00,,,0.00,1.000000,,2013-05-14 11:32:00,
2013-05-14 06:43:00,53.0,42.0,-100.00,SSW,200,5.0,7.0,67,0.00,,,0.00,1.000000,,2013-05-14 11:43:00,
2013-05-14 07:12:00,57.0,46.0,-100.00,SSW,207,5.0,8.0,66,0.00,,,0.00,43.000000,,2013-05-14 12:12:00,
2013-05-14 07:21:00,57.0,46.0,-100.00,SSW,207,5.0,8.0,66,0.00,,,0.00,43.000000,,2013-05-14 12:21:00,
2013-05-14 07:32:00,57.0,46.0,-100.00,SSW,207,5.0,8.0,66,0.00,,,0.00,43.000000,,2013-05-14 12:32:00,
2013-05-14 07:42:00,57.0,46.0,-100.00,SSW,207,5.0,8.0,66,0.00,,,0.00,43.000000,,2013-05-14 12:42:00,
2013-05-14 08:11:00,64.0,48.0,-100.00,WSW,252,5.0,10.0,56,0.00,,,0.00,258.000000,,2013-05-14 13:11:00,
2013-05-14 08:22:00,64.0,48.0,-100.00,WSW,252,5.0,10.0,56,0.00,,,0.00,258.000000,,2013-05-14 13:22:00,
2013-05-14 08:32:00,64.0,48.0,-100.00,WSW,252,5.0,10.0,56,0.00,,,0.00,258.000000,,2013-05-14 13:32:00,
2013-05-14 08:41:00,64.0,48.0,-100.00,WSW,252,5.0,10.0,56,0.00,,,0.00,258.000000,,2013-05-14 13:41:00,
2013-05-14 09:11:00,69.0,48.0,-100.00,WSW,248,7.0,15.0,48,0.00,,,0.00,454.000000,,2013-05-14 14:11:00,
2013-05-14 09:22:00,69.0,48.0,-100.00,WSW,248,7.0,15.0,48,0.00,,,0.00,454.000000,,2013-05-14 14:22:00,
2013-05-14 09:32:00,69.0,48.0,-100.00,WSW,248,7.0,15.0,48,0.00,,,0.00,454.000000,,2013-05-14 14:32:00,
2013-05-14 09:41:00,69.0,48.0,-100.00,WSW,248,7.0,15.0,48,0.00,,,0.00,454.000000,,2013-05-14 14:41:00,
2013-05-14 10:12:00,75.0,49.0,-100.00,North,355,5.0,11.0,40,0.00,,,0.00,632.000000,,2013-05-14 15:12:00,
2013-05-14 10:22:00,75.0,49.0,-100.00,North,355,5.0,11.0,40,0.00,,,0.00,632.000000,,2013-05-14 15:22:00,
2013-05-14 10:33:00,75.0,49.0,-100.00,North,355,5.0,11.0,40,0.00,,,0.00,632.000000,,2013-05-14 15:33:00,
2013-05-14 10:43:00,75.0,49.0,-100.00,North,355,5.0,11.0,40,0.00,,,0.00,632.000000,,2013-05-14 15:43:00,
2013-05-14 11:12:00,79.0,49.0,-100.00,WNW,300,4.0,12.0,35,0.00,,,0.00,784.000000,,2013-05-14 16:12:00,
2013-05-14 11:23:00,79.0,49.0,-100.00,WNW,300,4.0,12.0,35,0.00,,,0.00,784.000000,,2013-05-14 16:23:00,
2013-05-14 11:33:00,79.0,49.0,-100.00,WNW,300,4.0,12.0,35,0.00,,,0.00,784.000000,,2013-05-14 16:33:00,
2013-05-14 11:43:00,79.0,49.0,-100.00,WNW,300,4.0,12.0,35,0.00,,,0.00,784.000000,,2013-05-14 16:43:00,
2013-05-14 12:13:00,84.0,46.0,-100.00,SE,125,4.0,13.0,27,0.00,,,0.00,867.000000,,2013-05-14 17:13:00,
2013-05-14 12:24:00,84.0,46.0,-100.00,SE,125,4.0,13.0,27,0.00,,,0.00,867.000000,,2013-05-14 17:24:00,
2013-05-14 12:33:00,84.0,46.0,-100.00,SE,125,4.0,13.0,27,0.00,,,0.00,867.000000,,2013-05-14 17:33:00,
2013-05-14 12:43:00,84.0,46.0,-100.00,SE,125,4.0,13.0,27,0.00,,,0.00,867.000000,,2013-05-14 17:43:00,
2013-05-14 13:12:00,86.0,44.0,-100.00,WNW,303,9.0,16.0,23,0.00,,,0.00,693.000000,,2013-05-14 18:12:00,
2013-05-14 13:22:00,86.0,44.0,-100.00,WNW,303,9.0,16.0,23,0.00,,,0.00,693.000000,,2013-05-14 18:22:00,
2013-05-14 13:32:00,86.0,44.0,-100.00,WNW,303,9.0,16.0,23,0.00,,,0.00,693.000000,,2013-05-14 18:32:00,
2013-05-14 13:42:00,86.0,44.0,-100.00,WNW,303,9.0,16.0,23,0.00,,,0.00,693.000000,,2013-05-14 18:42:00,
2013-05-14 14:12:00,85.0,45.0,-100.00,NNE,26,4.0,17.0,25,0.00,,,0.00,371.000000,,2013-05-14 19:12:00,
2013-05-14 14:22:00,85.0,45.0,-100.00,NNE,26,4.0,17.0,25,0.00,,,0.00,371.000000,,2013-05-14 19:22:00,
2013-05-14 14:32:00,85.0,45.0,-100.00,NNE,26,4.0,17.0,25,0.00,,,0.00,371.000000,,2013-05-14 19:32:00,
2013-05-14 14:42:00,85.0,45.0,-100.00,NNE,26,4.0,17.0,25,0.00,,,0.00,371.000000,,2013-05-14 19:42:00,
2013-05-14 15:11:00,83.0,46.0,-100.00,ESE,117,5.0,11.0,27,0.00,,,0.00,272.000000,,2013-05-14 20:11:00,
2013-05-14 15:23:00,83.0,46.0,-100.00,ESE,117,5.0,11.0,27,0.00,,,0.00,272.000000,,2013-05-14 20:23:00,
2013-05-14 15:33:00,83.0,46.0,-100.00,ESE,117,5.0,11.0,27,0.00,,,0.00,272.000000,,2013-05-14 20:33:00,
2013-05-14 15:44:00,83.0,46.0,-100.00,ESE,117,5.0,11.0,27,0.00,,,0.00,272.000000,,2013-05-14 20:44:00,
2013-05-14 17:13:00,90.0,47.0,-100.00,South,174,10.0,19.0,23,-99.99,,,0.00,605.000000,,2013-05-14 22:13:00,
2013-05-14 17:24:00,90.0,47.0,-100.00,South,174,10.0,19.0,23,-99.99,,,0.00,605.000000,,2013-05-14 22:24:00,
2013-05-14 17:34:00,90.0,47.0,-100.00,South,174,10.0,19.0,23,-99.99,,,0.00,605.000000,,2013-05-14 22:34:00,
2013-05-14 17:45:00,90.0,47.0,-100.00,South,174,10.0,19.0,23,-99.99,,,0.00,605.000000,,2013-05-14 22:45:00,
2013-05-14 18:12:00,87.0,46.0,-100.00,South,176,11.0,24.0,24,0.00,,,0.00,322.000000,,2013-05-14 23:12:00,
2013-05-14 18:21:00,87.0,46.0,-100.00,South,176,11.0,24.0,24,0.00,,,0.00,322.000000,,2013-05-14 23:21:00,
2013-05-14 18:32:00,87.0,46.0,-100.00,South,176,11.0,24.0,24,0.00,,,0.00,322.000000,,2013-05-14 23:32:00,
2013-05-14 18:44:00,87.0,46.0,-100.00,South,176,11.0,24.0,24,0.00,,,0.00,322.000000,,2013-05-14 23:44:00,
2013-05-14 19:11:00,88.0,47.0,-100.00,South,177,10.0,24.0,24,0.00,,,0.00,250.000000,,2013-05-15 00:11:00,
2013-05-14 19:21:00,88.0,47.0,-100.00,South,177,10.0,24.0,24,0.00,,,0.00,250.000000,,2013-05-15 00:21:00,
2013-05-14 19:32:00,88.0,47.0,-100.00,South,177,10.0,24.0,24,0.00,,,0.00,250.000000,,2013-05-15 00:32:00,
2013-05-14 19:42:00,88.0,47.0,-100.00,South,177,10.0,24.0,24,0.00,,,0.00,250.000000,,2013-05-15 00:42:00,
2013-05-14 20:11:00,86.0,51.0,-100.00,SSW,197,14.0,27.0,30,0.00,,,0.00,112.000000,,2013-05-15 01:11:00,
2013-05-14 20:22:00,86.0,51.0,-100.00,SSW,197,14.0,27.0,30,0.00,,,0.00,112.000000,,2013-05-15 01:22:00,
2013-05-14 20:32:00,86.0,51.0,-100.00,SSW,197,14.0,27.0,30,0.00,,,0.00,112.000000,,2013-05-15 01:32:00,
2013-05-14 20:42:00,86.0,51.0,-100.00,SSW,197,14.0,27.0,30,0.00,,,0.00,112.000000,,2013-05-15 01:42:00,
2013-05-14 21:11:00,81.0,52.0,-100.00,SSW,211,9.0,29.0,37,0.00,,,0.00,11.000000,,2013-05-15 02:11:00,
2013-05-14 21:21:00,81.0,52.0,-100.00,SSW,211,9.0,29.0,37,0.00,,,0.00,11.000000,,2013-05-15 02:21:00,
2013-05-14 21:32:00,81.0,52.0,-100.00,SSW,211,9.0,29.0,37,0.00,,,0.00,11.000000,,2013-05-15 02:32:00,
2013-05-14 21:42:00,81.0,52.0,-100.00,SSW,211,9.0,29.0,37,0.00,,,0.00,11.000000,,2013-05-15 02:42:00,
2013-05-14 22:12:00,79.0,54.0,-100.00,SW,218,9.0,20.0,42,0.00,,,0.00,0.000000,,2013-05-15 03:12:00,
2013-05-14 22:22:00,79.0,54.0,-100.00,SW,218,9.0,20.0,42,0.00,,,0.00,0.000000,,2013-05-15 03:22:00,
2013-05-14 22:33:00,79.0,54.0,-100.00,SW,218,9.0,20.0,42,0.00,,,0.00,0.000000,,2013-05-15 03:33:00,
2013-05-14 22:44:00,79.0,54.0,-100.00,SW,218,9.0,20.0,42,0.00,,,0.00,0.000000,,2013-05-15 03:44:00,
2013-05-14 23:12:00,76.0,55.0,-100.00,SW,214,7.0,15.0,48,0.00,,,0.00,0.000000,,2013-05-15 04:12:00,
2013-05-14 23:24:00,76.0,55.0,-100.00,SW,214,7.0,15.0,48,0.00,,,0.00,0.000000,,2013-05-15 04:24:00,
2013-05-14 23:33:00,76.0,55.0,-100.00,SW,214,7.0,15.0,48,0.00,,,0.00,0.000000,,2013-05-15 04:33:00,
2013-05-14 23:42:00,76.0,55.0,-100.00,SW,214,7.0,15.0,48,0.00,,,0.00,0.000000,,2013-05-15 04:42:00,